Regional Weather Roundup
Issued by NWS

Home | Current Version | Previous Version | Graphics & Text | Print | Product List | Glossary On
Versions: 1 2 3 4 5 6 7 8 9 10 11 12 13 14 15 16 17 18 19 20 21 22 23 24 25 26 27 28 29 30 31 32 33 34 35 36 37 38 39 40 41 42 43 44 45 46 47 48 49 50
489
ASUS43 KLOT 240803
RWRIL

ILLINOIS REGIONAL WEATHER ROUNDUP
NATIONAL WEATHER SERVICE CHICAGO/ROMEOVILLE IL
200 AM CST TUE JAN 24 2017

NOTE: "FAIR" INDICATES FEW OR NO CLOUDS BELOW 12,000 FEET WITH NO
SIGNIFICANT WEATHER AND/OR OBSTRUCTIONS TO VISIBILITY.

* THESE STATIONS ARE NOT UNDER NWS QUALITY CONTROL. THEY ALSO MAY NOT
  REPORT WEATHER SUCH AS PRECIPITATION OR FOG.

ILZ001-002-007-009-015-016-024-240900-
NORTHWEST ILLINOIS

CITY           SKY/WX    TMP DP  RH WIND       PRES   REMARKS
MOLINE         CLOUDY    35  30  82 W7        29.87R WCI  29
STERLING*      CLOUDY    35  34  96 W6        29.87R WCI  30
SAVANNA*       CLOUDY    35  33  92 W3        29.87R
$$

ILZ003-004-008-010-011-017-018-240900-
NORTH CENTRAL ILLINOIS

CITY           SKY/WX    TMP DP  RH WIND       PRES   REMARKS
ROCKFORD       CLOUDY    37  32  82 NW7       29.86R WCI  32
FREEPORT*      CLOUDY    34  31  91 W3        29.87R
ROCHELLE*      CLOUDY    35  33  91 NW5       29.85R WCI  31
DE KALB*       CLOUDY    35  34  93 NW5       29.84R WCI  31
PERU*          CLOUDY    35  33  92 W7        29.85S FOG     WCI  29
$$

ILZ005-006-012>014-019>023-240900-
NORTHEAST ILLINOIS

CITY           SKY/WX    TMP DP  RH WIND       PRES   REMARKS
CHICAGO-OHARE  CLOUDY    38  34  85 NW9       29.81R WCI  31
CHICAGO-MIDWAY CLOUDY    39  33  79 NW8       29.82R WCI  33
AURORA         CLOUDY    36  34  92 W5        29.83R WCI  32
LANSING*       CLOUDY    38  36  90 NW8       29.82R WCI  32
JOLIET*        CLOUDY    39  36  89 NW5       29.84R
WAUKEGAN       CLOUDY    37  34  89 W6        29.81R WCI  32
DUPAGE AIRPORT CLOUDY    37  32  82 NW8       29.82R WCI  31
KANKAKEE*      CLOUDY    39  36  91 CALM      29.84R
WHEELING       CLOUDY    37  33  85 NW8       29.83R WCI  31
MORRIS*        CLOUDY    37  34  91 CALM      29.83R
ROMEOVILLE*    CLOUDY    38  36  94 N9        29.82S WCI  31
NORTHERLY ISL    N/A     39  33  79 W5          N/A
$$

LMZ740>746-240900-
SOUTHERN LAKE MICHIGAN

STATION/POSITION SKY/WX   TEMP    WIND        PRES    VSBY  WAVE
                          AIR SEA DIR/SP/G                  HT/PER
                          (F)     (DEG/KT/KT) (MB)    (MI)  (FT/S)
HARRISON CRIB              39     300/ 12/ 12   N/A
BURNHAM HARBOR             39     280/  6/  9   N/A
CALUMET HARBOR             39     280/  5/  8 1009.0R
BURNS HARBOR               35     310/  8/ 10 1010.2R
MICHIGAN CITY              37     290/ 11/ 13   N/A
$$

ILZ025>027-034>036-040-047-049-050-058-095>099-240900-
WEST-CENTRAL ILLINOIS

CITY           SKY/WX    TMP DP  RH WIND       PRES   REMARKS
QUINCY         CLOUDY    34  29  82 CALM      29.87S
GALESBURG*     CLOUDY    32  32 100 W6        29.87S WCI  27
MACOMB*        CLOUDY    34  32  92 NW5       29.89R WCI  30
JACKSONVILLE*  CLOUDY    36  32  86 CALM      29.87R
PITTSFIELD*    CLOUDY    35  32  88 CALM      29.88R
$$

ILZ028>032-037-038-041>044-048-051>054-059>061-240900-
CENTRAL ILLINOIS

CITY           SKY/WX    TMP DP  RH WIND       PRES   REMARKS
BLOOMINGTON    CLOUDY    37  35  92 W7        29.85R WCI  32
DECATUR        CLOUDY    39  37  92 W7        29.85S WCI  34
PEORIA         CLOUDY    35  33  92 NW5       29.86S WCI  31
LACON*         CLOUDY    36  34  95 NW5       29.85S WCI  32
LINCOLN*       CLOUDY    38  37  94 W3        29.86R
SPRINGFIELD    CLOUDY    38  34  85 NW6       29.87R WCI  33
TAYLORVILLE    CLOUDY    37  34  89 W7        29.86R WCI  32
$$

ILZ033-039-045-046-055>057-062-063-240900-
EAST-CENTRAL ILLINOIS

CITY           SKY/WX    TMP DP  RH WIND       PRES   REMARKS
CHAMPAIGN      CLOUDY    39  36  89 NW6       29.84R WCI  35
RANTOUL*       CLOUDY    39  37  93 NW7       29.83R WCI  34
MATTOON        CLOUDY    39  34  82 NW8       29.83S WCI  33
PARIS*         CLOUDY    39  37  91 NW6       29.84R WCI  35
$$

ILZ079-100>102-240900-
SOUTHWEST ILLINOIS

CITY           SKY/WX    TMP DP  RH WIND       PRES   REMARKS
ALTON          CLOUDY    37  32  82 CALM      29.88S
BELLEVILLE     CLOUDY    39  34  81 CALM      29.87R
CAHOKIA*       CLOUDY    40  32  73 NE5       29.88R
SPARTA*        CLOUDY    38  32  77 CALM      29.89R
$$

ILZ064>066-069>071-074>076-080>082-084>086-088>090-092>094-240900-
SOUTH-CENTRAL ILLINOIS

CITY           SKY/WX    TMP DP  RH WIND       PRES   REMARKS
CARBONDALE     CLOUDY    40  35  83 N3        29.89R
CAIRO*         CLOUDY    33  33  99 CALM      29.89R
EFFINGHAM*     CLOUDY    40  36  84 W7        29.87S
MARION         CLOUDY    41  36  81 CALM      29.89R
MT. VERNON     CLOUDY    39  34  82 CALM      29.87S
CENTRALIA*     CLOUDY    40  36  86 W5        29.86R
SALEM*         CLOUDY    40  35  81 CALM      29.85F
METROPOLIS*    CLOUDY    41  34  77 CALM      29.88S
$$

ILZ067-068-072-073-078-083-087-091-240900-
SOUTHEAST ILLINOIS

CITY           SKY/WX    TMP DP  RH WIND       PRES   REMARKS
LAWRENCEVILLE  CLOUDY    41  36  82 NW9       29.85R
FLORA*         CLOUDY    42  35  77 N3        29.86S
FAIRFIELD*     CLOUDY    41  35  78 CALM      29.85S
HARRISBURG*    CLOUDY    40  35  81 CALM      29.88R
ROBINSON*      CLOUDY    39  35  84 NW10      29.85R WCI  33
CARMI*         CLOUDY    41  35  81 NW6       29.86R
$$

ABBREVIATIONS USED IN REMARKS
   TC - TEMPERATURE IN CELSIUS
  WCI - WIND CHILL INDEX
   HX - HEAT INDEX
  VSB - VISIBILITY
$$





USA.gov is the U.S. government's official web portal to all federal, state and local government web resources and services.